Ringgold, VA

6:43 PM EDT on August 27, 2016 (GMT -0400)
Danville Regional

Weather History for KDAN - June, 2014

Change the Weather History Date:

Thursday, June 5, 2014

  Actual Average Record
Temperature  
Mean Temperature 77 °F 72 °F  
Max Temperature 89 °F 82 °F 94 °F (2002)
Min Temperature 64 °F 62 °F 44 °F (1987)
Degree Days  
Heating Degree Days 0 0  
Month to date heating degree days 0 0  
Since 1 June heating degree days 0 0  
Since 1 July heating degree days 3894 3811  
Cooling Degree Days 12 7  
Month to date cooling degree days 34 34  
Year to date cooling degree days 195 178  
Since 1 June cooling degree days 34 34  
Growing Degree Days 28 (Base 50)    
Moisture  
Dew Point 64 °F    
Average Humidity 66    
Maximum Humidity 90    
Minimum Humidity 42    
Precipitation  
Precipitation T in 0.15 in 1.37 in (1957)
Month to date precipitation 0.35 0.75  
Year to date precipitation 18.91 18.63  
Snow  
Snow 0.00 in - - ()
Month to date snowfall 0.0  
Since 1 June snowfall 0.0  
Since 1 July snowfall 13.4  
Snow Depth 0.00 in    
Sea Level Pressure  
Sea Level Pressure 29.74 in    
Wind  
Wind Speed 8 mph (WNW)    
Max Wind Speed 16 mph    
Max Gust Speed 22 mph    
Visibility 10 miles    
Events      
T = Trace of Precipitation, MM = Missing Value Source: NWS Daily Summary

Daily Weather History Graph

Daily Weather History Graph

Search for Another Location

Airport or City:

Trip Planner

Search our weather history database for the weather conditions in past years. The results will help you decide how hot, cold, wet, or windy it might be!

Date:

Astronomy

Jun. 05, 2014 Rise Set
Actual Time 5:59 AM EDT 8:32 PM EDT
Civil Twilight 5:29 AM EDT 9:02 PM EDT
Nautical Twilight 4:51 AM EDT 9:40 PM EDT
Astronomical Twilight 4:10 AM EDT 10:22 PM EDT
Moon 1:04 PM EDT (6/5) 1:08 AM EDT (6/5)
Length of Visible Light 15h 33m
Length of Day
14h 33m
Waxing Crescent, 48% of the Moon is Illuminated
Jun 5
Waxing Crescent
Jun 5
First Quarter
Jun 13
Full
Jun 19
Last Quarter
Jun 27
New

Hourly Weather History & Observations

Time (EDT) Temp. Heat Index Dew Point Humidity Pressure Visibility Wind Dir Wind Speed Gust Speed Precip Events Conditions
12:53 AM 72.0 °F - 68.0 °F 87% 29.71 in 10.0 mi South 3.5 mph - N/A   Mostly Cloudy
1:53 AM 71.1 °F - 66.9 °F 87% 29.71 in 10.0 mi SW 3.5 mph - N/A   Scattered Clouds
2:53 AM 72.0 °F - 66.9 °F 84% 29.70 in 10.0 mi SSW 5.8 mph - N/A   Clear
3:53 AM 73.9 °F - 66.0 °F 76% 29.69 in 10.0 mi SW 6.9 mph - N/A   Partly Cloudy
4:53 AM 73.9 °F - 66.0 °F 76% 29.67 in 10.0 mi SW 8.1 mph - N/A   Clear
5:53 AM 73.9 °F - 66.0 °F 76% 29.69 in 10.0 mi West 4.6 mph - N/A   Mostly Cloudy
6:53 AM 73.9 °F - 66.0 °F 76% 29.72 in 10.0 mi NW 6.9 mph - 0.00 in   Clear
7:53 AM 75.0 °F - 66.9 °F 76% 29.72 in 10.0 mi West 8.1 mph - N/A   Clear
8:53 AM 78.1 °F - 68.0 °F 71% 29.72 in 10.0 mi West 6.9 mph - N/A   Clear
9:53 AM 81.0 °F 83.8 °F 68.0 °F 65% 29.72 in 10.0 mi WSW 9.2 mph - N/A   Clear
10:53 AM 81.0 °F 83.0 °F 66.0 °F 60% 29.73 in 10.0 mi West 9.2 mph - N/A   Overcast
11:53 AM 82.0 °F 84.1 °F 66.0 °F 58% 29.73 in 10.0 mi West 9.2 mph - N/A   Clear
12:53 PM 84.9 °F 87.1 °F 66.0 °F 53% 29.73 in 10.0 mi West 15.0 mph - N/A   Partly Cloudy
1:53 PM 84.0 °F 85.4 °F 64.0 °F 51% 29.73 in 10.0 mi WNW 11.5 mph - N/A   Clear
2:53 PM 84.0 °F 85.8 °F 64.9 °F 53% 29.73 in 10.0 mi Variable 5.8 mph - N/A   Mostly Cloudy
3:53 PM 88.0 °F 89.3 °F 64.0 °F 45% 29.71 in 10.0 mi NNW 12.7 mph - N/A   Clear
4:53 PM 88.0 °F 89.3 °F 64.0 °F 45% 29.71 in 10.0 mi North 10.4 mph - N/A   Partly Cloudy
5:53 PM 86.0 °F 86.1 °F 61.0 °F 43% 29.72 in 10.0 mi NW 12.7 mph 19.6 mph N/A   Clear
6:53 PM 84.0 °F 83.8 °F 59.0 °F 43% 29.73 in 10.0 mi NW 10.4 mph - N/A   Clear
7:53 PM 81.0 °F 81.6 °F 60.1 °F 49% 29.78 in 10.0 mi North 5.8 mph - N/A   Clear
8:53 PM 77.0 °F - 57.9 °F 52% 29.80 in 10.0 mi North 8.1 mph - N/A   Clear
9:53 PM 73.0 °F - 55.9 °F 55% 29.82 in 10.0 mi North 8.1 mph - N/A   Clear
10:53 PM 68.0 °F - 59.0 °F 73% 29.84 in 10.0 mi Calm Calm - N/A   Clear
11:53 PM 66.0 °F - 57.0 °F 73% 29.85 in 10.0 mi NNW 3.5 mph - N/A   Clear